Location: Casteau
(50.5142°N, 4.0161°E)
Time: 02:12:21
(UTC+00:00)

Explorer 11/Cluster Stage 4 - Pass Details

Date: 04 August 2021
Orbit: 467 x 1257 km, 28.8° (Epoch: 18 September)

Event Time Altitude Azimuth Distance (km) Brightness Sun altitude
Rises 11:04:59 0° 242° (WSW) 4,170 10.4 55.4°
Reaches altitude 10° 11:10:40 10° 211° (SSW) 3,225 10.2 55.7°
Maximum altitude 11:12:49 11° 196° (SSW) 3,121 10.3 55.8°
Drops below altitude 10° 11:14:57 10° 180° (S) 3,191 10.4 55.9°
Sets 11:20:29 0° 149° (SSE) 4,048 10.7 56.1°
